Simultaneous Nadir Overpasses (SNOs) Predictions

Prediction of SNOs between GOES-17 and LANDSAT-8 Satellite Orbit:

Table of predicted SNOs for the next 14.0 days since TLE Epoch: 1/13/2024
Index Date Time (GOES-17) GOES-17 Lat,Lon LANDSAT-8 Lat,Lon Distance(km) Time Diff (sec)
1 01/13/2024 16:54:32 -0.00,-104.67 -0.92,-100.33 493.40 80
2 01/14/2024 05:15:56 0.00,-104.66 -0.20,-105.52 97.38 80
3 01/16/2024 05:01:05 0.00,-104.67 0.46,-102.57 239.17 80
4 01/16/2024 17:22:20 -0.00,-104.67 0.67,-107.72 347.01 80
5 01/18/2024 17:10:08 -0.00,-104.68 0.04,-104.76 10.64 80
6 01/20/2024 17:00:36 -0.01,-104.68 -0.60,-101.80 326.73 80
7 01/21/2024 05:22:00 0.01,-104.68 -0.49,-107.00 263.34 80
8 01/23/2024 05:07:07 0.01,-104.68 0.12,-104.03 73.64 80
9 01/25/2024 04:54:54 0.00,-104.69 0.76,-101.07 410.94 80
10 01/25/2024 17:16:08 -0.01,-104.69 0.35,-106.22 175.62 80
